• In Belgien
  • Länderverzeichnis
  • Für 7 Tage
  • Wassertemperatur
  • Satellitenkarten
  • Wetterkarte
  • Widgets
  • user-avatar
    Anmelden

    Stündliche Wetter Satif

    Heute, 25 November, Samstag

    Zeit Temperatur Niederschläge Wind Luftdruck Luftfeuchtigkeit
    00:00 +9°C° 0 mm 2 m/S 675 mmHg 33%
    01:00 +9°C° 0 mm 2 m/S 674 mmHg 34%
    02:00 +8°C° 0 mm 2 m/S 674 mmHg 35%
    03:00 +8°C° 0 mm 2 m/S 674 mmHg 35%
    04:00 +8°C° 0 mm 2 m/S 674 mmHg 35%
    05:00 +8°C° 0 mm 2 m/S 674 mmHg 36%
    06:00 +8°C° 0 mm 2 m/S 674 mmHg 36%
    07:00 +9°C° 0 mm 2 m/S 674 mmHg 34%
    08:00 +11°C° 0 mm 3 m/S 675 mmHg 31%
    09:00 +13°C° 0 mm 3 m/S 675 mmHg 29%
    10:00 +14°C° 0 mm 3 m/S 675 mmHg 26%
    11:00 +16°C° 0 mm 3 m/S 676 mmHg 23%
    12:00 +17°C° 0 mm 3 m/S 676 mmHg 20%
    13:00 +17°C° 0 mm 3 m/S 675 mmHg 21%
    14:00 +17°C° 0 mm 2 m/S 675 mmHg 23%
    15:00 +17°C° 0 mm 2 m/S 675 mmHg 24%
    16:00 +15°C° 0 mm 2 m/S 674 mmHg 28%
    17:00 +13°C° 0 mm 2 m/S 674 mmHg 32%
    18:00 +12°C° 0 mm 1 m/S 674 mmHg 36%
    19:00 +11°C° 0 mm 1 m/S 674 mmHg 37%
    20:00 +11°C° 0 mm 1 m/S 674 mmHg 37%
    21:00 +10°C° 0 mm 1 m/S 674 mmHg 37%
    22:00 +10°C° 0 mm 1 m/S 674 mmHg 36%
    23:00 +10°C° 0 mm 1 m/S 674 mmHg 36%

    Morgen, 26 November, Sonntag

    Zeit Temperatur Niederschläge Wind Luftdruck Luftfeuchtigkeit
    00:00 +9°C° 0 mm 1 m/S 674 mmHg 36%
    01:00 +9°C° 0 mm 1 m/S 674 mmHg 36%
    02:00 +9°C° 0 mm 1 m/S 674 mmHg 37%
    03:00 +9°C° 0 mm 1 m/S 673 mmHg 37%
    04:00 +9°C° 0 mm 1 m/S 674 mmHg 38%
    05:00 +9°C° 0 mm 1 m/S 674 mmHg 39%
    06:00 +9°C° 0 mm 1 m/S 674 mmHg 40%
    07:00 +10°C° 0 mm 1 m/S 674 mmHg 42%
    08:00 +11°C° 0 mm 1 m/S 675 mmHg 44%
    09:00 +12°C° 0 mm 1 m/S 676 mmHg 45%
    10:00 +13°C° 0 mm 2 m/S 676 mmHg 47%
    11:00 +13°C° 0 mm 2 m/S 676 mmHg 49%
    12:00 +13°C° 0 mm 2 m/S 676 mmHg 51%
    13:00 +12°C° 0,2 mm 3 m/S 676 mmHg 57%
    14:00 +11°C° 0,2 mm 3 m/S 676 mmHg 64%
    15:00 +11°C° 0,2 mm 4 m/S 676 mmHg 70%
    16:00 +10°C° 0,1 mm 4 m/S 676 mmHg 75%
    17:00 +8°C° 0,1 mm 4 m/S 676 mmHg 80%
    18:00 +7°C° 0,1 mm 4 m/S 676 mmHg 85%
    19:00 +7°C° 0,1 mm 4 m/S 677 mmHg 84%
    20:00 +8°C° 0,1 mm 3 m/S 677 mmHg 84%
    21:00 +7°C° 0,1 mm 3 m/S 677 mmHg 83%
    22:00 +7°C° 0,1 mm 3 m/S 677 mmHg 83%
    23:00 +5°C° 0,1 mm 3 m/S 677 mmHg 84%

    übermorgen, 27 November, Montag

    Zeit Temperatur Niederschläge Wind Luftdruck Luftfeuchtigkeit
    00:00 +5°C° 0,1 mm 3 m/S 677 mmHg 84%
    01:00 +5°C° 0,1 mm 3 m/S 677 mmHg 84%
    02:00 +5°C° 0,1 mm 2 m/S 677 mmHg 84%
    03:00 +5°C° 0,1 mm 2 m/S 677 mmHg 83%
    04:00 +5°C° 0 mm 2 m/S 677 mmHg 84%
    05:00 +4°C° 0 mm 2 m/S 677 mmHg 85%
    06:00 +4°C° 0 mm 2 m/S 677 mmHg 86%
    07:00 +4°C° 0 mm 2 m/S 678 mmHg 82%
    08:00 +5°C° 0 mm 2 m/S 678 mmHg 77%
    09:00 +6°C° 0 mm 2 m/S 678 mmHg 72%
    10:00 +6°C° 0 mm 2 m/S 678 mmHg 69%
    11:00 +7°C° 0 mm 2 m/S 678 mmHg 66%
    12:00 +8°C° 0 mm 2 m/S 678 mmHg 62%
    13:00 +8°C° 0 mm 2 m/S 677 mmHg 62%
    14:00 +8°C° 0 mm 2 m/S 677 mmHg 61%
    15:00 +8°C° 0 mm 2 m/S 677 mmHg 60%
    16:00 +7°C° 0 mm 2 m/S 677 mmHg 65%
    17:00 +7°C° 0 mm 1 m/S 677 mmHg 69%
    18:00 +6°C° 0 mm 1 m/S 676 mmHg 74%
    19:00 +6°C° 0 mm 1 m/S 676 mmHg 75%
    20:00 +6°C° 0 mm 1 m/S 676 mmHg 76%
    21:00 +5°C° 0 mm 1 m/S 676 mmHg 78%
    22:00 +5°C° 0 mm 1 m/S 676 mmHg 77%
    23:00 +5°C° 0 mm 1 m/S 675 mmHg 77%

    28 November, Dienstag

    Zeit Temperatur Niederschläge Wind Luftdruck Luftfeuchtigkeit
    00:00 +5°C° 0 mm 1 m/S 675 mmHg 77%
    01:00 +5°C° 0 mm 1 m/S 675 mmHg 76%
    02:00 +3°C° 0 mm 2 m/S 674 mmHg 75%
    03:00 +3°C° 0 mm 2 m/S 674 mmHg 74%
    04:00 +3°C° 0 mm 2 m/S 674 mmHg 74%
    05:00 +3°C° 0 mm 2 m/S 673 mmHg 74%
    06:00 +3°C° 0 mm 2 m/S 673 mmHg 74%
    07:00 +4°C° 0 mm 2 m/S 674 mmHg 68%
    08:00 +5°C° 0 mm 3 m/S 674 mmHg 62%
    09:00 +8°C° 0 mm 3 m/S 674 mmHg 56%
    10:00 +8°C° 0 mm 4 m/S 674 mmHg 52%
    11:00 +10°C° 0 mm 4 m/S 674 mmHg 48%
    12:00 +11°C° 0 mm 4 m/S 673 mmHg 44%
    13:00 +11°C° 0 mm 4 m/S 673 mmHg 45%
    14:00 +11°C° 0 mm 4 m/S 672 mmHg 46%
    15:00 +11°C° 0 mm 4 m/S 672 mmHg 47%
    16:00 +10°C° 0 mm 3 m/S 671 mmHg 52%
    17:00 +9°C° 0 mm 3 m/S 671 mmHg 58%
    18:00 +7°C° 0 mm 2 m/S 671 mmHg 64%
    19:00 +7°C° 0 mm 3 m/S 671 mmHg 66%
    20:00 +7°C° 0 mm 3 m/S 671 mmHg 67%
    21:00 +7°C° 0 mm 3 m/S 671 mmHg 69%
    22:00 +7°C° 0 mm 3 m/S 670 mmHg 70%
    23:00 +5°C° 0 mm 3 m/S 670 mmHg 71%

    29 November, Mittwoch

    Zeit Temperatur Niederschläge Wind Luftdruck Luftfeuchtigkeit
    00:00 +5°C° 0 mm 3 m/S 670 mmHg 72%
    01:00 +5°C° 0 mm 3 m/S 669 mmHg 72%
    02:00 +5°C° 0 mm 3 m/S 669 mmHg 71%
    03:00 +7°C° 0 mm 3 m/S 669 mmHg 71%
    04:00 +5°C° 0 mm 3 m/S 668 mmHg 71%
    05:00 +5°C° 0 mm 3 m/S 668 mmHg 71%
    06:00 +5°C° 0 mm 4 m/S 668 mmHg 72%
    07:00 +6°C° 0 mm 4 m/S 668 mmHg 69%
    08:00 +7°C° 0 mm 5 m/S 668 mmHg 65%
    09:00 +9°C° 0 mm 5 m/S 669 mmHg 62%
    10:00 +10°C° 0 mm 6 m/S 668 mmHg 59%
    11:00 +13°C° 0 mm 6 m/S 668 mmHg 56%
    12:00 +14°C° 0 mm 7 m/S 668 mmHg 53%
    13:00 +14°C° 0 mm 6 m/S 668 mmHg 53%
    14:00 +13°C° 0 mm 6 m/S 667 mmHg 53%
    15:00 +13°C° 0 mm 5 m/S 667 mmHg 54%
    16:00 +12°C° 0 mm 5 m/S 666 mmHg 58%
    17:00 +9°C° 0 mm 5 m/S 666 mmHg 62%
    18:00 +8°C° 0 mm 5 m/S 666 mmHg 67%
    19:00 +8°C° 0 mm 5 m/S 666 mmHg 65%
    20:00 +8°C° 0 mm 5 m/S 666 mmHg 64%
    21:00 +8°C° 0 mm 5 m/S 666 mmHg 63%
    22:00 +8°C° 0 mm 5 m/S 666 mmHg 61%
    23:00 +8°C° 0 mm 5 m/S 666 mmHg 60%

    30 November, Donnerstag

    Zeit Temperatur Niederschläge Wind Luftdruck Luftfeuchtigkeit
    00:00 +8°C° 0 mm 5 m/S 665 mmHg 58%
    01:00 +7°C° 0 mm 4 m/S 665 mmHg 59%
    02:00 +7°C° 0 mm 4 m/S 665 mmHg 60%
    03:00 +7°C° 0 mm 4 m/S 665 mmHg 60%
    04:00 +7°C° 0 mm 4 m/S 665 mmHg 61%
    05:00 +7°C° 0 mm 4 m/S 665 mmHg 62%
    06:00 +7°C° 0 mm 4 m/S 665 mmHg 63%
    07:00 +8°C° 0 mm 4 m/S 665 mmHg 62%
    08:00 +9°C° 0 mm 5 m/S 665 mmHg 61%
    09:00 +10°C° 0 mm 6 m/S 666 mmHg 60%
    10:00 +10°C° 0,4 mm 6 m/S 666 mmHg 62%
    11:00 +11°C° 0,4 mm 6 m/S 666 mmHg 63%
    12:00 +11°C° 0,4 mm 6 m/S 666 mmHg 65%
    13:00 +11°C° 0,6 mm 6 m/S 666 mmHg 68%
    14:00 +10°C° 0,6 mm 5 m/S 666 mmHg 71%
    15:00 +10°C° 0,6 mm 5 m/S 666 mmHg 74%
    16:00 +10°C° 0,6 mm 4 m/S 666 mmHg 78%
    17:00 +10°C° 0,6 mm 3 m/S 667 mmHg 82%
    18:00 +9°C° 0,6 mm 3 m/S 667 mmHg 86%
    19:00 +9°C° 0,5 mm 2 m/S 667 mmHg 88%
    20:00 +8°C° 0,5 mm 2 m/S 667 mmHg 89%
    21:00 +8°C° 0,5 mm 2 m/S 668 mmHg 91%
    22:00 +8°C° 0,7 mm 2 m/S 668 mmHg 91%
    23:00 +7°C° 0,7 mm 2 m/S 668 mmHg 91%
    Mehr zeigen